Weather History for Fullerton, CA

Change the Weather History Date:

Saturday, October 5, 2013

  Actual Average Record
Temperature  
Mean Temperature 85 °F 70 °F  
Max Temperature 94 °F 80 °F 94 °F (2005)
Min Temperature 75 °F 60 °F 53 °F (1998)
Degree Days  
Heating Degree Days 0 0  
Month to date heating degree days 0 0  
Since 1 July heating degree days 0 1  
Cooling Degree Days 20 5  
Month to date cooling degree days 48 28  
Year to date cooling degree days 1799 1146  
Growing Degree Days 30 (Base 50)    
Moisture  
Dew Point 20 °F    
Average Humidity 9    
Maximum Humidity 12    
Minimum Humidity 5    
Precipitation  
Precipitation 0.00 in 0.01 in 0.67 in (2011)
Month to date precipitation 0.00 0.04  
Year to date precipitation 2.53 10.02  
Since 1 July precipitation T 0.37  
Snow  
Snow 0.00 in - - ()
Month to date snowfall 0.0  
Year to date snowfall 0.0  
Since 1 July snowfall 0.0  
Snow Depth 0.00 in    
Sea Level Pressure  
Sea Level Pressure 30.05 in    
Wind  
Wind Speed 14 mph (ENE)    
Max Wind Speed 30 mph    
Max Gust Speed 39 mph    
Visibility 9 miles    
Events      
T = Trace of Precipitation, MM = Missing Value Source: NWS Daily Summary

Daily Weather History Graph

Daily Weather History Graph

Search for Another Location

Airport:

Trip Planner

Search our weather history database for the weather conditions in past years. The results will help you decide how hot, cold, wet, or windy it might be!

Date:

Astronomy

Oct. 05, 2013 Rise Set
Actual Time 6:49 AM PDT 6:30 PM PDT
Civil Twilight 6:24 AM PDT 6:55 PM PDT
Nautical Twilight 5:55 AM PDT 7:24 PM PDT
Astronomical Twilight 5:26 AM PDT 7:53 PM PDT
Moon 7:30 AM PDT (10/5) 6:57 PM PDT (10/5)
Length of Visible Light 12h 30m
Length of Day
11h 40m
New Moon, 1% of the Moon is Illuminated
Oct 5
New Moon
Oct 11
First Quarter
Oct 18
Full
Oct 26
Last Quarter
Nov 3
New

Hourly Weather History & Observations

Time (PDT) Temp. Dew Point Humidity Pressure Visibility Wind Dir Wind Speed Gust Speed Precip Events Conditions
12:53 AM 75.9 °F 19.0 °F 12% 30.02 in 10.0 mi NNE 4.6 mph - N/A   Clear
1:53 AM 77.0 °F 18.0 °F 11% 30.03 in 10.0 mi East 16.1 mph - N/A   Clear
2:53 AM 77.0 °F 19.0 °F 11% 30.03 in 10.0 mi ENE 11.5 mph - N/A   Clear
3:53 AM 75.9 °F 19.0 °F 12% 30.02 in 10.0 mi ENE 9.2 mph - N/A   Clear
4:53 AM 77.0 °F 18.0 °F 11% 30.03 in 10.0 mi East 16.1 mph 27.6 mph N/A   Clear
5:53 AM 75.9 °F 18.0 °F 11% 30.03 in 10.0 mi East 9.2 mph - N/A   Clear
6:53 AM 75.9 °F 18.0 °F 11% 30.05 in 10.0 mi East 6.9 mph - N/A   Clear
7:53 AM 77.0 °F 19.0 °F 11% 30.07 in 10.0 mi East 19.6 mph 25.3 mph N/A   Clear
8:53 AM 81.0 °F 18.0 °F 10% 30.09 in 10.0 mi ENE 15.0 mph 21.9 mph N/A   Clear
9:21 AM 82.4 °F 15.8 °F 8% 30.10 in 2.5 mi ENE 21.9 mph 33.4 mph N/A   Haze
9:28 AM 82.4 °F 15.8 °F 8% 30.10 in 4.0 mi East 21.9 mph 34.5 mph N/A   Haze
9:34 AM 82.4 °F 15.8 °F 8% 30.10 in 2.0 mi East 21.9 mph 34.5 mph N/A   Haze
9:41 AM 82.4 °F 15.8 °F 8% 30.10 in 5.0 mi East 23.0 mph 34.5 mph N/A   Haze
9:53 AM 82.9 °F 15.1 °F 8% 30.10 in 7.0 mi East 27.6 mph 39.1 mph N/A   Clear
10:53 AM 86.0 °F 15.1 °F 7% 30.11 in 7.0 mi East 23.0 mph 33.4 mph N/A   Clear
11:53 AM 89.1 °F 17.1 °F 7% 30.08 in 10.0 mi East 16.1 mph 27.6 mph N/A   Clear
12:53 PM 90.0 °F 15.1 °F 6% 30.07 in 10.0 mi East 21.9 mph 29.9 mph N/A   Clear
1:53 PM 93.0 °F 12.9 °F 5% 30.04 in 10.0 mi East 16.1 mph 24.2 mph N/A   Clear
2:53 PM 93.0 °F 15.1 °F 6% 30.02 in 10.0 mi East 12.7 mph - N/A   Clear
3:53 PM 93.0 °F 12.9 °F 5% 30.01 in 10.0 mi ESE 8.1 mph - N/A   Clear
4:53 PM 93.0 °F 12.0 °F 5% 30.01 in 10.0 mi ENE 8.1 mph - N/A   Clear
5:53 PM 88.0 °F 23.0 °F 9% 30.01 in 10.0 mi NW 8.1 mph - N/A   Clear
6:53 PM 82.9 °F 30.0 °F 15% 30.02 in 10.0 mi Calm Calm - N/A   Clear
7:53 PM 80.1 °F 28.0 °F 15% 30.03 in 10.0 mi NW 4.6 mph - N/A   Clear
8:53 PM 73.9 °F 30.0 °F 20% 30.04 in 10.0 mi Calm Calm - N/A   Clear
9:53 PM 71.1 °F 33.1 °F 25% 30.05 in 10.0 mi Calm Calm - N/A   Clear
10:53 PM 66.9 °F 35.1 °F 31% 30.05 in 10.0 mi Calm Calm - N/A   Clear
11:53 PM 64.9 °F 37.0 °F 36% 30.05 in 10.0 mi Calm Calm - N/A   Clear